This is the latest recevied weather packets stored in our database for station/object SV2RCS-13. If no packets are shown the sender has not sent any weather packets the latest 10 day(s).
| Time | Temp. | Humidity | Pressure | Rain* | Wind** | Luminosity | Snow |
|---|---|---|---|---|---|---|---|
| 1777262815 | 15° C | 26% | 1018.2 hPa | - | - | - | - |
| 1777262215 | 14.44° C | 28% | 1018.3 hPa | - | - | - | - |
| 1777261615 | 14.44° C | 28% | 1018.3 hPa | - | - | - | - |
| 1777261015 | 14.44° C | 28% | 1018.1 hPa | - | - | - | - |
| 1777260415 | 14.44° C | 28% | 1018 hPa | - | - | - | - |
| 1777259815 | 14.44° C | 28% | 1017.8 hPa | - | - | - | - |
| 1777259215 | 15° C | 29% | 1017.5 hPa | - | - | - | - |
| 1777258615 | 15° C | 29% | 1017.4 hPa | - | - | - | - |
| 1777258015 | 15° C | 30% | 1017.5 hPa | - | - | - | - |
| 1777257414 | 15° C | 30% | 1017.5 hPa | - | - | - | - |
| 1777256815 | 15° C | 30% | 1017.4 hPa | - | - | - | - |
| 1777256215 | 15° C | 30% | 1017.5 hPa | - | - | - | - |
| 1777255614 | 15° C | 30% | 1017.3 hPa | - | - | - | - |
| 1777255014 | 15.56° C | 30% | 1017.2 hPa | - | - | - | - |
| 1777254415 | 15.56° C | 30% | 1017.3 hPa | - | - | - | - |
| 1777253815 | 15.56° C | 31% | 1017.2 hPa | - | - | - | - |
| 1777253215 | 15.56° C | 31% | 1017 hPa | - | - | - | - |
| 1777252614 | 16.11° C | 31% | 1017 hPa | - | - | - | - |
| 1777252015 | 15.56° C | 31% | 1017 hPa | - | - | - | - |
| 1777251414 | 16.11° C | 30% | 1016.1 hPa | - | - | - | - |
| 1777250814 | 16.11° C | 30% | 1016.7 hPa | - | - | - | - |
| 1777250214 | 16.11° C | 29% | 1016.8 hPa | - | - | - | - |
| 1777249616 | 16.11° C | 29% | 1016.6 hPa | - | - | - | - |
| 1777249015 | 16.67° C | 29% | 1016.5 hPa | - | - | - | - |
| 1777248415 | 16.67° C | 28% | 1016.3 hPa | - | - | - | - |
* Rain since midnight (hover to see other rain measurements)
** Current wind speed in m/s (hover to see current wind gust speed)